DateTimeUTC,F1_A11,F1_S11,BsB_S11,BsG_S11,BsR_S11,BbsB_S11,BbsG_S11,BbsR_S11,BaB_A11,BaG_A11,BaR_A11,Tu_S11,T_S11,Uu_S11,U_S11,P_S11,T1_A11
2021-09-07T09:00:00Z,00000200,21000000,,,,,,,0000.04,0000.22,0000.12,18.0,24.9,,00.0,0662.2,31.0
2021-09-07T09:01:00Z,00000200,21000000,,,,,,,-000.50,-000.15,-000.35,18.0,25.0,,00.0,0662.2,31.0
2021-09-07T09:02:00Z,00000200,21000000,,,,,,,0000.19,-000.18,0000.10,18.0,25.0,,00.0,0662.2,31.0
2021-09-07T09:03:00Z,00000200,61000000,,,,,,,-000.12,0000.08,-000.26,18.1,25.0,,00.0,0662.2,31.0
2021-09-07T09:04:00Z,00000200,41000000,0000.81,0000.84,0000.68,-000.35,0000.31,0000.22,0000.16,-000.04,-000.00,18.4,24.9,,00.0,0663.2,31.0
2021-09-07T09:05:00Z,00000200,01000000,0001.25,0000.82,0000.43,-000.19,0000.14,-000.10,0000.31,0000.46,0000.54,18.3,24.8,,00.0,0663.3,31.0
2021-09-07T09:06:00Z,00000200,01000000,0000.91,0000.82,0000.47,-000.01,0000.28,-000.00,-000.05,0000.35,-000.22,18.3,24.8,,00.0,0663.3,31.0
2021-09-07T09:07:00Z,00000200,01000000,0001.22,0000.76,0000.51,0000.61,-000.04,-000.10,0000.85,0000.35,0000.38,18.2,24.7,,00.0,0663.3,31.0
2021-09-07T09:08:00Z,00000200,01000000,0002.11,0001.19,0000.55,-000.70,-000.05,0000.07,0000.67,0000.27,0000.46,18.2,24.7,,00.0,0663.3,30.9
2021-09-07T09:09:00Z,00000200,01000000,0001.81,0000.91,0000.64,0000.36,0000.29,0000.27,0000.18,0000.36,0000.58,18.1,24.6,,00.0,0663.3,30.9
2021-09-07T09:10:00Z,00000200,01000000,0001.85,0000.77,0000.54,0000.46,-000.16,0000.17,0000.64,0000.79,0000.26,18.1,24.6,,00.0,0663.3,30.9
2021-09-07T09:11:00Z,00000200,01000000,0001.73,0000.83,0000.62,-000.12,0000.18,0000.08,0000.42,0000.10,0000.17,18.0,24.6,00.0,00.0,0663.3,30.9
2021-09-07T09:12:00Z,00000200,01000000,0000.92,0001.06,0000.59,0000.86,0000.17,0000.03,0000.68,0000.57,0000.33,18.1,24.6,00.0,00.0,0663.3,30.9
2021-09-07T09:13:00Z,00000200,01000000,0002.08,0001.10,0000.55,0000.41,0000.02,-000.11,0000.22,0000.22,0000.38,18.1,24.6,00.0,00.0,0663.3,30.9
2021-09-07T09:14:00Z,00000200,01000000,0001.05,0000.93,0000.61,-000.22,0000.15,0000.21,0000.15,0000.85,0000.51,18.2,24.6,00.0,00.0,0663.3,31.0
2021-09-07T09:15:00Z,00000200,01000000,0002.01,0000.66,0000.65,-000.11,0000.23,0000.40,0000.49,-000.24,0000.26,18.3,24.7,00.0,00.0,0663.3,30.9
2021-09-07T09:16:00Z,00000200,01000000,0001.77,0001.27,0000.47,0000.57,0000.14,0000.18,0000.60,0000.47,-000.15,18.3,24.7,00.0,00.0,0663.2,30.9
2021-09-07T09:17:00Z,00000200,01000000,0002.26,0000.80,0000.56,0000.15,0000.12,0000.19,0000.17,0000.33,0000.31,18.2,24.6,00.0,00.0,0663.2,30.9
2021-09-07T09:18:00Z,00000200,01000000,0001.45,0001.05,0000.90,-000.22,0000.09,0000.36,0000.34,0000.19,-000.06,18.2,24.6,00.1,00.1,0663.2,30.9
2021-09-07T09:19:00Z,00000200,01000000,0001.91,0000.88,0000.63,-000.10,-000.04,-000.01,0000.36,0000.37,0000.42,18.1,24.6,00.1,00.1,0663.2,30.9
2021-09-07T09:20:00Z,00000200,01000000,0001.37,0000.92,0000.97,0000.23,-000.18,0000.08,-000.08,0000.02,-000.04,18.1,24.5,00.1,00.0,0663.2,30.9
2021-09-07T09:21:00Z,00000200,01000000,0001.64,0000.96,0000.32,0000.07,-000.04,-000.01,0000.28,0000.23,0000.33,18.0,24.5,00.1,00.0,0663.2,30.9
2021-09-07T09:22:00Z,00000200,01000000,0001.91,0001.28,0000.42,0000.33,0000.19,-000.16,0000.50,0000.32,0000.09,17.9,24.4,00.2,00.1,0663.2,30.9
2021-09-07T09:23:00Z,00000200,01000000,0001.42,0000.85,0000.50,-000.07,0000.01,-000.07,0000.30,0000.32,0000.54,17.9,24.4,00.1,00.1,0663.2,30.9
2021-09-07T09:24:00Z,00000200,01000000,0001.56,0000.91,0000.58,-000.31,0000.15,0000.00,0000.27,0000.51,0000.08,17.9,24.4,00.1,00.1,0663.2,30.9
2021-09-07T09:25:00Z,00000200,01000000,0001.71,0001.13,0000.71,0000.37,0000.07,-000.43,0000.63,-000.03,0000.22,17.8,24.3,00.2,00.1,0663.2,30.9
2021-09-07T09:26:00Z,00000200,01000000,0001.27,0001.19,0000.69,0000.10,0000.19,-000.13,0000.51,0000.61,0000.20,17.8,24.3,00.1,00.1,0663.2,30.9
2021-09-07T09:27:00Z,00000200,01000000,0000.67,0000.82,0000.40,-000.19,0000.30,-000.45,0000.47,0000.57,0000.41,17.8,24.3,00.2,00.1,0663.3,30.9
2021-09-07T09:28:00Z,00000200,01000000,0001.01,0001.18,0000.46,-000.30,0000.13,0000.01,0000.23,0000.13,0000.71,17.9,24.4,00.3,00.2,0663.3,30.9
2021-09-07T09:29:00Z,00000200,01000000,0001.12,0000.92,0000.27,-000.06,0000.11,-000.03,0000.52,0000.53,0000.00,18.0,24.4,00.3,00.2,0663.3,30.9
2021-09-07T09:30:00Z,00000200,01000000,0001.32,0000.80,0000.35,0000.37,0000.05,-000.12,0000.55,0000.55,0000.48,18.1,24.4,00.4,00.3,0663.4,31.0
2021-09-07T09:31:00Z,00000200,01000000,0002.59,0000.86,0000.44,0000.08,-000.05,-000.15,0000.11,0000.26,0000.15,18.2,24.5,00.3,00.2,0663.3,30.9
2021-09-07T09:32:00Z,00000200,01000000,0001.06,0001.09,0000.85,-000.03,0000.21,0000.13,0000.49,0000.47,0000.21,18.3,24.5,00.4,00.3,0663.4,30.9
2021-09-07T09:33:00Z,00000200,01000000,0001.62,0001.10,0000.72,0000.19,-000.13,0000.32,0000.29,-000.05,0000.29,18.4,24.6,00.3,00.2,0663.3,31.0
2021-09-07T09:34:00Z,00000200,01000000,0001.88,0000.89,0000.69,0000.24,0000.24,-000.13,0000.09,0000.13,0000.05,18.4,24.6,00.4,00.3,0663.3,31.0
2021-09-07T09:35:00Z,00000200,01000000,0001.32,0000.89,0000.49,0000.45,-000.00,0000.10,0000.16,0000.11,0000.19,18.4,24.6,00.4,00.3,0663.3,31.0
2021-09-07T09:36:00Z,00000200,01000000,0000.87,0001.05,0000.73,0000.02,0000.16,-000.01,-000.03,0000.26,-000.02,18.3,24.6,00.3,00.2,0663.3,31.0
2021-09-07T09:37:00Z,00000200,01000000,0001.62,0000.78,0000.33,-000.33,0000.08,-000.26,0000.42,0000.18,0000.31,18.2,24.5,00.3,00.2,0663.3,31.0
2021-09-07T09:38:00Z,00000200,01000000,0001.44,0001.18,0000.64,-000.26,-000.01,-000.13,0000.17,0000.23,0000.13,18.2,24.5,00.4,00.3,0663.3,30.9
2021-09-07T09:39:00Z,00000200,01000000,0001.72,0000.76,0000.40,0000.77,0000.26,-000.15,0000.19,0000.17,0000.15,18.1,24.5,00.2,00.2,0663.3,30.9
2021-09-07T09:40:00Z,00000200,01000000,0000.35,0000.62,0000.51,-000.49,0000.10,-000.01,0000.40,0000.29,0000.14,18.1,24.4,00.4,00.3,0663.2,30.9
2021-09-07T09:41:00Z,00000200,01000000,0001.41,0000.67,0000.85,0000.17,0000.10,0000.23,0000.46,0000.35,0000.41,18.1,24.4,00.4,00.3,0663.2,30.9
2021-09-07T09:42:00Z,00000200,01000000,0001.43,0000.99,0000.42,0000.58,-000.06,-000.09,0000.62,0000.81,0000.36,18.1,24.4,00.5,00.3,0663.2,30.9
2021-09-07T09:43:00Z,00000200,01000000,0001.20,0000.72,0000.48,0000.06,-000.03,0000.08,0000.24,-000.11,0000.37,18.2,24.5,00.6,00.4,0663.2,30.9
2021-09-07T09:44:00Z,00000200,01000000,0001.37,0001.14,0000.78,0000.28,0000.14,0000.34,0000.67,0000.89,0000.20,18.3,24.5,00.7,00.5,0663.2,31.0
2021-09-07T09:45:00Z,00000200,01000000,0001.79,0000.82,0000.68,-000.09,0000.25,-000.08,0000.10,-000.18,0000.20,18.4,24.5,00.6,00.4,0663.1,31.0
2021-09-07T09:46:00Z,00000200,01000000,0002.05,0000.98,0000.69,0000.17,0000.26,-000.11,0000.34,0000.48,0000.59,18.4,24.6,00.6,00.4,0663.1,31.0
2021-09-07T09:47:00Z,00000200,01000000,0001.80,0001.17,0000.10,-000.53,0000.20,-000.27,0000.16,0000.00,-000.33,18.5,24.7,00.5,00.4,0663.1,31.0
2021-09-07T09:48:00Z,00000200,01000000,0000.67,0000.93,0000.64,-000.31,-000.16,-000.25,0000.17,0000.10,0000.40,18.5,24.7,00.6,00.4,0663.1,31.0
2021-09-07T09:49:00Z,00000200,01000000,0001.46,0000.86,0000.47,0000.75,0000.10,0000.31,0000.02,0000.52,-000.09,18.4,24.6,00.6,00.4,0663.1,31.0
2021-09-07T09:50:00Z,00000200,01000000,0001.08,0000.66,0000.67,-000.20,0000.41,0000.39,0000.06,0000.26,0000.27,18.3,24.6,00.6,00.4,0663.0,31.0
2021-09-07T09:51:00Z,00000200,01000000,0000.99,0001.11,0000.57,-000.06,0000.50,0000.02,0000.30,-000.10,0000.24,18.3,24.6,00.7,00.5,0663.0,31.0
2021-09-07T09:52:00Z,00000200,01000000,0001.80,0000.74,0000.69,0000.32,-000.07,0000.14,0000.22,0000.14,-000.02,18.2,24.5,00.6,00.4,0663.1,31.0
2021-09-07T09:53:00Z,00000200,01000000,0001.85,0000.57,0000.64,0000.20,0000.20,-000.03,0000.24,0000.11,0000.15,18.2,24.5,00.7,00.5,0663.1,30.9
2021-09-07T09:54:00Z,00000200,01000000,0001.97,0000.95,0000.18,-000.67,0000.09,-000.10,0000.55,0000.54,0000.23,18.1,24.5,00.7,00.5,0663.1,30.9
2021-09-07T09:55:00Z,00000200,01000000,0001.47,0001.02,0000.57,0000.10,-000.28,0000.18,0000.19,0000.06,0000.18,18.1,24.4,00.8,00.6,0663.1,30.9
2021-09-07T09:56:00Z,00000200,01000000,0001.09,0000.68,0000.36,-000.39,-000.01,-000.06,0000.43,0000.42,0000.58,18.1,24.4,00.7,00.5,0663.1,30.9
2021-09-07T09:57:00Z,00000200,41000000,,,,,,,-000.17,-000.20,-000.31,18.1,24.4,00.6,00.4,0662.9,30.9
2021-09-07T09:58:00Z,00000200,61000000,,,,,,,0000.51,0000.41,0000.41,17.9,24.6,00.3,00.2,0662.1,30.9
2021-09-07T09:59:00Z,00000200,21000000,,,,,,,0000.06,0000.21,0000.16,17.9,24.7,00.4,00.2,0662.1,31.0
